Theta_e
311 315 316 316 316 314 314 313 313 313 313 313 313 314 314 313 312 312 312 311 310 310 312 313 312 311 311 311 311 311 312 311 311 311 311 311 312 312 312 313 314 315 316 317 317 316 316 316 316 316 316 316 316 316 315 315 315 315 315 315 315 314 314 313 313 313 312 311 310 309 308 308 307 306 305 305 304 303 303 302 302 302 301 300 300 300
311 314 315 316 315 314 313 313 312 312 312 313 314 314 313 313 312 312 312 311 310 310 311 313 312 311 311 311 311 311 312 311 311 311 312 312 312 312 313 313 314 315 315 316 316 316 315 315 315 316 315 315 315 316 316 316 315 315 315 315 314 314 314 314 313 313 312 312 311 310 310 310 309 308 307 307 306 305 303 302 302 302 301 300 300 300
313 313 313 313 313 313 313 312 312 313 313 314 314 314 313 313 312 312 312 313 311 312 315 315 313 311 311 312 311 311 311 311 312 312 312 313 312 312 313 314 314 314 315 315 315 316 315 315 314 315 315 315 315 315 315 315 315 315 315 314 314 314 314 313 313 313 312 312 312 311 310 310 309 308 308 307 306 305 303 302 302 301 301 300 300 300
315 316 313 310 310 312 313 312 312 313 313 314 314 313 313 312 312 313 314 315 313 312 316 315 312 311 311 311 312 311 311 312 312 313 313 313 312 313 313 314 314 313 314 314 315 316 315 314 314 314 315 315 315 315 314 315 314 314 315 314 314 314 314 313 313 313 312 312 311 310 309 308 308 308 307 306 305 304 303 302 301 301 301 301 300 300
316 316 312 310 311 312 313 313 313 313 312 314 314 313 313 313 313 313 313 315 314 313 315 314 312 314 314 314 313 312 311 311 311 311 312 312 312 313 313 313 314 313 314 315 315 316 315 314 315 315 315 315 314 315 315 315 315 314 315 314 314 314 313 313 313 312 312 311 310 309 308 307 306 306 306 305 305 304 303 303 302 302 301 301 300 300
313 312 310 313 314 313 313 313 314 315 313 313 314 313 312 313 313 313 313 313 314 317 316 314 315 317 318 318 315 314 314 313 311 311 311 311 312 313 312 314 314 313 314 315 316 316 315 314 315 315 315 315 315 316 316 315 315 314 314 314 314 314 313 313 312 311 311 311 310 309 308 307 307 306 306 306 307 307 306 305 304 302 301 301 300 300
313 312 311 315 317 315 314 313 314 315 312 313 318 319 313 312 313 314 314 314 318 321 316 315 318 317 317 318 318 316 317 316 314 313 312 310 311 312 313 314 315 315 314 315 316 316 316 316 316 316 315 316 316 316 316 315 314 314 314 313 313 313 313 313 312 311 311 310 310 310 309 309 308 308 308 308 308 308 307 306 305 304 302 301 301 300
315 312 313 315 315 316 315 314 314 313 313 316 320 322 318 315 316 315 314 314 317 318 315 316 318 317 316 317 318 317 316 316 315 316 315 311 311 313 313 314 315 317 316 316 317 316 317 317 316 316 316 316 316 316 315 315 315 314 314 314 313 313 313 312 312 311 311 311 310 310 309 309 309 309 309 309 308 308 307 306 306 305 303 302 301 300
314 315 316 315 313 315 315 314 316 314 314 317 317 317 318 317 317 316 316 316 316 317 316 315 316 318 318 316 318 315 314 317 316 315 315 313 313 313 314 315 316 317 317 317 317 317 317 317 316 316 316 315 315 315 315 314 314 314 313 313 313 313 312 312 312 311 311 311 310 310 310 309 309 308 308 308 308 308 307 307 306 305 304 303 302 301
312 314 313 315 316 315 313 315 318 318 315 315 315 316 317 318 318 318 319 318 317 318 318 317 317 318 318 318 319 315 315 319 317 315 314 312 312 313 314 316 317 317 317 317 317 317 317 317 316 315 315 315 315 315 315 314 314 313 313 313 313 313 312 312 312 311 311 311 310 310 310 309 309 308 308 307 307 307 307 307 307 306 305 304 303 302
310 309 309 312 314 313 315 315 312 315 314 311 316 321 321 321 321 322 322 318 318 319 319 321 319 316 318 318 319 319 319 319 317 315 316 314 312 313 315 317 317 317 317 317 317 316 317 316 316 315 315 315 315 315 315 314 314 314 313 313 313 313 312 312 312 311 311 311 310 310 310 309 309 308 308 308 307 307 307 307 307 306 306 305 304 302
309 309 312 313 310 309 316 314 308 309 310 311 319 324 321 322 322 322 322 319 318 320 320 322 318 315 317 317 317 320 318 317 317 318 324 324 315 313 316 317 316 317 317 316 317 316 317 316 315 315 315 315 315 315 315 314 315 314 314 314 313 313 313 312 312 311 311 310 310 310 310 309 309 308 308 308 308 308 308 307 307 306 306 305 304 303
314 313 313 312 310 310 315 317 314 312 311 313 319 320 318 320 320 320 320 319 319 320 317 316 316 315 316 316 316 317 317 318 317 314 318 322 315 313 316 317 316 317 317 317 317 316 316 315 314 315 314 314 315 314 315 315 315 315 314 314 314 313 313 312 312 311 311 311 310 310 310 309 309 308 308 308 308 308 308 307 307 307 306 306 305 305
318 316 311 311 312 312 314 316 316 317 315 314 317 318 318 320 320 319 321 320 319 319 315 312 315 316 316 317 318 316 314 315 313 310 311 313 313 314 316 316 316 317 317 316 316 315 314 314 314 315 314 313 314 314 314 314 315 315 314 314 314 314 313 313 312 312 311 311 310 310 310 309 308 308 308 308 308 308 308 307 307 307 307 307 307 306
318 317 314 314 316 314 313 314 316 320 317 313 316 320 318 321 324 322 323 322 319 320 317 312 315 319 317 318 320 317 312 310 310 311 311 311 312 313 314 315 316 316 316 317 316 314 313 313 313 314 314 313 313 313 314 315 315 315 314 314 314 314 313 313 312 312 311 311 310 310 309 309 309 308 308 308 308 308 308 308 307 307 307 307 307 306
315 318 317 313 312 313 313 313 315 320 319 313 316 320 316 319 325 322 321 322 319 320 318 314 318 320 316 314 316 315 313 311 310 310 309 309 311 312 312 314 316 316 316 316 315 313 312 313 313 314 314 314 314 313 314 314 315 315 314 314 314 314 313 313 312 312 312 311 310 310 309 309 309 309 308 309 309 309 309 308 308 308 307 307 306 306
316 319 319 311 309 311 310 310 312 315 317 315 315 317 315 316 320 318 319 320 317 318 318 317 318 317 315 316 316 317 317 314 313 312 310 309 310 311 312 313 314 315 314 314 313 312 313 313 313 314 314 314 314 313 314 314 315 315 314 314 314 313 313 313 312 312 312 311 311 310 310 309 309 309 310 310 310 310 309 308 308 307 307 306 306 306
316 316 317 314 313 311 305 306 310 309 311 317 318 316 314 315 316 317 319 319 317 317 318 317 318 316 316 318 318 320 321 319 321 319 313 309 308 308 309 311 312 312 312 313 313 313 314 314 314 314 313 313 314 314 313 314 315 314 314 314 314 313 313 313 313 312 312 312 311 311 310 310 310 310 310 310 309 309 308 308 308 308 307 307 307 306
316 314 317 316 315 313 307 309 314 308 307 314 316 314 314 317 318 318 319 319 317 318 317 317 318 316 316 317 316 319 321 321 322 319 315 314 309 306 309 311 312 312 312 313 314 314 314 313 313 313 312 312 313 313 313 313 314 314 314 314 313 313 313 312 312 312 312 312 312 312 311 311 310 310 309 309 308 307 307 308 309 308 308 307 307 306
315 314 316 317 314 313 312 313 317 316 311 310 310 312 313 314 317 318 318 319 317 318 318 319 319 317 319 322 320 319 321 321 318 316 317 316 309 306 309 311 311 312 312 313 313 313 313 312 312 312 312 312 312 313 314 314 314 314 314 314 313 313 312 312 312 311 312 312 312 312 311 311 311 310 309 308 307 307 308 308 308 308 308 307 307 306
316 315 315 317 315 313 313 316 319 321 318 314 313 315 313 313 316 316 315 317 317 316 317 319 319 318 320 324 321 316 317 318 314 314 316 313 308 308 310 310 311 312 312 313 313 313 312 312 312 312 312 312 312 312 313 314 314 314 314 314 313 313 312 312 312 311 312 312 312 312 311 311 311 310 309 308 307 307 307 307 307 307 307 307 306 306
319 319 317 318 318 315 315 317 319 319 319 317 315 315 313 313 315 315 315 316 316 316 316 317 318 318 317 320 317 313 315 315 313 313 314 312 310 311 312 312 312 312 312 312 312 312 313 312 312 312 312 312 312 313 313 313 313 314 314 314 313 312 312 312 312 311 312 312 312 311 311 311 310 310 309 309 308 308 307 307 307 306 306 306 306 306
318 319 317 317 317 317 316 316 317 316 314 314 313 313 314 313 313 314 315 316 316 316 315 316 317 317 317 318 315 314 315 314 311 312 312 310 310 312 314 313 313 312 311 313 312 313 314 313 313 313 312 313 314 314 314 313 313 313 314 314 313 312 312 311 312 311 311 311 311 311 311 311 310 309 309 309 309 309 309 308 307 306 305 305 306 306
314 315 316 317 317 317 316 316 315 313 312 313 313 312 313 313 313 314 314 314 316 316 316 318 317 317 321 323 317 315 314 311 309 310 309 308 310 312 313 313 314 313 312 313 313 313 313 313 313 313 313 314 314 314 315 314 313 313 313 314 313 313 312 312 312 312 311 311 311 311 311 311 311 310 309 310 310 310 310 309 308 307 305 305 304 305
315 316 317 317 317 316 316 317 315 312 311 313 313 312 312 313 313 314 314 314 315 315 316 317 317 318 322 323 317 314 315 312 311 311 309 309 311 312 312 312 313 313 313 313 312 312 312 312 313 312 312 313 312 312 312 312 311 311 312 313 313 313 312 312 312 311 311 311 311 311 311 311 311 310 309 310 310 310 310 309 308 307 306 305 304 304
314 317 318 317 316 316 315 315 314 314 313 312 313 313 312 312 313 313 314 314 314 315 315 316 316 316 317 317 315 314 314 313 313 312 311 311 311 312 312 312 311 311 311 310 309 309 310 310 310 309 309 309 308 308 308 308 308 309 310 311 312 312 312 312 312 311 311 311 311 311 311 310 310 310 310 310 310 310 310 309 308 307 306 305 304 303
313 315 316 315 316 315 314 314 314 314 314 313 313 314 313 313 313 313 314 314 314 315 315 315 316 315 315 315 314 314 313 313 313 312 311 311 311 312 311 310 309 308 307 305 305 305 306 306 306 306 306 306 307 306 306 306 306 306 306 307 308 309 310 310 311 310 311 310 310 310 310 310 310 309 309 309 309 309 308 308 307 306 306 305 304 303
313 313 314 314 314 314 314 314 314 314 313 313 313 314 314 313 313 312 313 313 313 315 314 315 315 315 315 314 313 313 313 312 312 312 312 312 311 310 309 307 306 304 302 301 301 300 301 301 302 302 303 304 305 306 306 306 306 306 305 305 306 307 307 308 308 308 309 308 308 309 308 308 308 308 308 307 307 306 306 307 307 306 305 304 303 303
311 311 312 313 313 313 314 313 314 314 313 313 314 314 314 314 313 313 312 312 312 313 313 313 314 314 313 313 313 313 312 312 312 311 310 308 305 303 303 302 299 298 298 297 297 297 297 298 299 299 300 301 303 305 306 306 307 307 307 308 308 308 308 307 307 307 307 307 307 308 308 307 307 307 307 306 306 305 305 306 307 305 304 303 302 302
308 309 311 311 311 312 313 313 313 313 313 313 313 313 313 314 313 313 313 313 313 313 313 313 313 313 312 311 310 308 305 305 305 305 302 299 297 297 297 296 295 295 295 295 295 296 296 297 298 298 299 299 301 302 303 304 305 305 307 308 308 308 308 307 307 307 306 306 306 307 307 307 307 307 307 307 307 307 306 306 306 305 304 303 302 301
307 308 309 309 309 310 311 312 312 312 312 312 312 312 313 313 314 313 313 313 313 313 313 312 313 314 309 303 301 299 297 297 298 298 296 294 294 295 294 294 294 294 294 294 295 295 296 297 297 298 298 299 299 300 301 301 302 303 304 305 306 306 306 306 306 306 305 306 307 306 306 306 306 306 307 308 308 307 306 306 305 304 303 302 301 300
305 306 306 307 307 308 309 311 312 311 310 310 310 311 312 312 313 312 312 313 313 313 313 314 313 309 300 295 295 295 294 294 294 295 295 293 293 294 293 294 294 294 294 294 294 295 295 296 296 296 297 297 298 299 299 299 300 300 301 302 303 304 305 305 305 305 306 307 307 306 306 306 306 306 306 307 307 306 306 305 304 302 302 301 300 300
304 304 305 306 306 306 307 309 309 309 308 309 310 311 312 312 312 313 312 311 310 309 309 307 303 297 294 293 294 294 293 293 293 294 294 293 293 293 293 293 293 293 294 294 294 294 295 295 295 295 295 296 296 297 297 298 298 299 299 300 301 303 303 304 304 304 305 306 305 305 306 305 305 305 305 305 305 305 304 303 303 302 301 301 300 299
303 303 303 304 305 305 305 306 306 306 307 308 307 306 308 308 308 308 306 302 301 301 299 297 295 293 293 293 292 292 293 292 292 293 294 293 293 293 293 293 293 293 294 294 294 294 294 294 294 294 294 294 294 295 295 296 296 297 297 298 300 301 302 303 303 303 304 304 303 303 303 303 303 303 303 303 303 303 303 302 302 301 301 300 299 299
301 301 301 302 303 303 303 304 304 304 306 306 301 298 299 300 299 299 297 294 295 296 295 294 294 293 292 293 292 292 293 292 292 293 294 293 293 293 293 294 294 293 293 293 293 292 292 292 292 293 293 293 293 294 294 295 295 295 296 297 298 299 301 302 302 301 301 300 300 300 300 301 301 301 302 302 301 301 301 301 300 300 300 299 299 298
301 301 301 301 302 302 302 302 303 303 305 305 300 296 297 297 296 298 298 295 293 294 294 294 294 292 292 293 292 292 292 292 292 293 294 293 293 293 293 293 293 293 292 292 291 291 291 290 291 291 291 291 292 292 293 293 294 294 294 295 296 297 299 300 301 300 299 298 297 297 298 298 299 299 300 300 300 300 300 299 299 299 298 298 297 297
301 302 302 301 302 302 302 303 303 304 305 305 300 296 296 296 295 297 298 296 293 293 294 294 293 292 292 292 292 291 292 292 291 293 294 292 292 294 293 293 293 292 291 291 290 290 290 290 290 290 290 290 291 291 291 292 292 293 293 294 294 295 296 298 300 301 300 299 298 296 297 297 297 298 298 298 298 299 299 299 298 297 297 296 296 296
301 301 302 302 303 304 303 303 303 303 303 301 297 294 295 295 295 295 297 296 294 293 294 293 293 293 292 292 292 292 292 291 291 292 292 292 292 293 293 292 292 291 291 290 289 289 289 289 289 289 290 290 290 290 290 291 291 292 292 293 294 294 295 296 298 300 301 300 300 298 297 296 296 296 296 297 297 297 297 297 297 296 296 295 295 295
301 301 302 302 302 302 301 300 299 300 301 297 294 295 295 294 294 295 297 298 295 293 293 293 293 293 292 292 292 292 291 291 290 291 291 292 293 293 292 292 292 291 290 289 289 289 289 289 289 289 289 290 290 290 290 290 290 291 291 292 293 293 294 294 296 298 299 300 300 299 299 298 297 295 295 295 295 295 295 295 295 295 295 295 295 294
300 301 300 299 299 299 299 299 298 299 299 296 293 294 293 292 293 296 299 298 294 292 293 293 292 293 292 291 292 292 291 291 290 291 291 291 293 293 292 292 291 290 289 289 288 288 288 288 288 288 288 289 289 289 289 289 290 290 290 291 291 292 293 293 294 295 296 298 298 299 299 299 298 297 296 294 294 293 294 294 294 294 294 294 294 293
298 299 298 297 297 297 297 298 297 298 298 295 292 292 292 292 294 297 297 295 291 291 294 293 292 293 292 291 291 291 291 291 291 290 290 292 293 292 291 291 291 290 289 288 288 288 288 288 288 287 288 288 288 288 288 288 289 289 289 290 290 291 291 292 293 294 294 296 297 297 297 298 298 298 298 297 295 293 293 293 293 293 293 293 293 292
295 296 297 297 297 296 297 296 295 296 297 294 292 292 293 294 296 296 294 292 291 291 293 293 293 293 292 291 291 291 291 291 290 290 291 291 292 291 291 291 290 289 288 288 288 287 287 287 287 287 287 287 287 287 287 287 287 287 288 288 289 289 290 291 292 293 293 295 296 296 296 297 297 297 298 298 297 295 293 292 292 292 292 291 291 291
294 294 294 296 296 295 294 293 293 294 295 293 292 293 293 294 294 293 292 292 292 292 292 293 293 293 292 291 291 291 291 290 290 291 291 291 291 291 290 290 288 288 287 287 287 287 287 287 287 286 286 286 286 286 286 286 286 286 286 287 287 288 288 289 290 291 291 293 294 294 294 295 296 296 297 297 297 297 295 293 292 292 292 291 290 290
294 293 292 293 294 293 291 292 293 294 294 293 292 292 292 292 293 293 292 292 291 292 292 293 293 293 292 291 291 291 291 290 290 291 291 291 290 290 289 288 287 287 287 286 286 286 286 286 286 286 286 286 286 286 286 286 286 285 286 286 286 286 287 287 288 288 289 290 291 292 292 292 294 295 295 296 296 297 296 296 294 294 294 292 291 290
294 293 292 292 293 293 292 293 294 293 293 292 292 292 292 292 292 292 291 291 290 290 291 292 292 292 292 291 291 290 290 290 291 291 290 290 289 288 287 287 286 286 286 286 286 285 285 285 285 285 285 285 285 285 286 285 285 285 286 285 285 286 286 286 286 286 287 288 288 289 290 290 291 292 294 295 295 296 296 296 295 295 295 294 292 291
293 292 291 292 293 293 292 292 293 292 291 292 292 292 291 291 291 291 290 290 290 290 291 291 291 290 291 291 291 290 290 290 290 290 289 288 287 287 286 286 286 286 285 285 285 285 284 284 284 284 284 284 285 285 285 285 285 285 285 286 285 285 285 285 285 285 286 286 286 287 288 288 289 290 291 292 293 294 295 295 295 295 295 294 293 292
292 291 290 291 292 292 291 292 291 291 291 291 291 291 291 291 290 290 290 290 290 290 290 290 289 290 291 291 290 290 289 288 288 287 287 286 285 285 285 285 285 285 284 284 285 284 284 283 283 283 283 283 284 284 284 284 285 285 285 285 285 285 285 285 285 285 285 285 285 285 286 286 287 288 288 290 291 292 293 293 294 294 294 294 293 292
291 291 291 291 291 291 291 291 291 290 290 290 290 290 290 290 290 290 290 289 289 289 289 289 289 290 290 290 289 288 287 286 285 284 284 284 284 284 284 284 284 284 283 284 284 283 283 282 282 282 282 282 283 284 283 284 284 284 285 285 285 285 285 285 285 285 285 285 285 285 285 285 286 286 287 288 289 290 291 292 292 293 294 294 294 294
291 291 291 292 291 290 290 290 290 290 290 290 290 290 290 290 289 289 289 289 289 289 288 289 289 289 289 288 287 286 285 285 285 284 282 282 283 283 282 282 282 282 282 282 283 282 282 281 281 281 281 281 283 283 283 283 284 284 284 284 285 284 284 284 284 284 285 285 285 284 285 285 285 285 286 286 287 288 289 290 291 292 293 293 293 293
290 290 291 291 290 290 290 290 290 290 290 290 290 290 290 289 288 288 288 288 288 288 288 288 288 288 287 286 285 284 283 284 284 283 282 282 282 281 281 281 281 281 281 281 281 281 281 281 280 280 280 281 281 282 282 282 282 283 284 284 284 283 282 282 283 283 284 284 284 284 284 284 284 285 285 286 286 287 288 289 290 291 292 292 292 292
290 290 290 290 290 291 291 291 291 290 290 290 290 290 289 288 288 287 287 286 286 286 285 285 285 285 285 285 284 283 282 282 282 281 280 280 281 280 280 280 280 280 280 280 280 279 279 279 278 278 278 279 279 280 280 280 280 282 283 283 283 282 280 280 281 281 283 283 283 284 283 283 283 284 285 285 286 286 287 288 289 290 291 291 291 291
Wind_Speed
10 5 3 6 11 15 13 12 16 17 11 5 3 6 7 7 10 10 12 12 3 5 8 9 17 18 16 16 16 25 29 26 27 29 31 33 34 37 38 44 48 50 55 56 55 55 53 51 48 47 46 45 44 42 41 42 43 43 42 43 44 44 44 44 45 46 47 48 48 49 49 50 49 48 47 47 47 46 45 43 41 40 39 38 38 37
6 7 7 13 17 15 10 10 13 11 7 6 5 8 7 7 13 13 13 14 3 2 8 8 16 20 16 15 16 21 19 18 25 27 29 33 33 36 38 44 49 51 54 54 55 56 53 51 48 46 45 43 43 43 42 42 41 41 42 43 44 44 45 46 45 45 46 47 46 46 46 47 47 47 47 48 48 48 47 45 43 42 41 40 40 39
4 6 11 18 15 7 3 4 5 6 7 7 5 6 7 7 11 11 11 12 3 2 7 7 14 18 15 15 15 17 18 20 31 35 35 35 32 34 39 45 49 50 52 53 55 55 52 50 47 44 43 42 42 40 40 40 40 40 41 43 44 45 46 46 46 46 45 44 44 44 43 43 44 45 46 47 48 49 48 47 45 44 43 42 41 41
5 7 14 19 10 4 7 3 4 3 5 6 6 6 8 7 7 9 6 6 3 3 7 9 14 15 13 14 13 20 28 26 33 40 41 40 37 39 46 49 49 49 52 54 55 54 49 46 44 42 41 40 39 38 38 38 38 39 40 41 42 44 46 47 47 45 44 43 43 43 43 43 43 44 45 47 49 49 49 48 48 47 46 45 43 42
10 7 9 12 8 8 10 7 4 5 6 7 9 8 11 12 12 11 5 6 6 4 6 8 14 13 9 12 11 15 25 23 26 32 34 41 44 44 48 52 51 52 54 56 55 53 48 43 43 42 39 38 37 37 38 37 37 38 38 38 40 42 45 46 46 44 43 44 44 45 45 46 46 46 47 49 51 51 50 51 50 50 49 47 45 44
11 8 6 6 7 9 9 8 7 8 9 8 8 12 18 17 13 12 8 7 6 5 4 4 9 11 5 10 10 8 10 12 15 17 23 37 44 41 43 49 51 49 51 52 53 52 47 44 44 42 39 38 38 37 37 36 35 35 35 37 38 41 44 45 45 44 44 45 46 46 48 49 50 50 50 50 49 49 50 51 52 51 50 48 47 46
6 8 8 8 8 9 7 7 8 10 9 9 6 12 16 13 9 11 8 4 2 4 3 3 2 11 6 6 10 9 8 10 10 10 17 30 36 35 40 46 47 45 46 47 47 48 47 44 43 42 40 39 38 36 35 34 33 33 34 36 38 40 42 43 43 43 44 45 46 47 48 48 49 50 49 46 45 46 47 49 50 51 50 49 49 48
3 4 6 8 8 6 6 8 9 11 8 8 4 8 9 8 9 8 6 4 4 3 3 1 4 7 14 7 8 11 10 9 11 12 16 23 29 35 37 40 43 44 43 43 44 45 44 42 40 38 36 34 33 32 32 32 31 32 33 35 37 39 40 41 41 42 44 45 45 46 47 47 48 47 45 43 44 45 45 47 48 49 50 50 50 50
4 5 7 8 6 5 8 9 6 11 7 6 2 4 6 6 6 5 5 5 2 4 3 3 5 2 14 8 4 4 8 8 12 16 16 17 24 32 34 37 39 39 39 39 40 40 40 41 38 35 32 28 27 26 25 26 28 30 31 33 36 38 39 40 40 41 42 43 44 44 45 46 47 45 44 44 44 45 45 46 46 48 49 50 51 51
2 4 6 8 6 6 9 5 6 12 8 3 5 5 4 3 3 4 3 3 2 4 5 6 6 3 13 8 5 4 3 7 12 13 12 14 22 29 31 33 34 34 34 33 33 34 35 38 36 31 28 25 22 19 19 21 24 27 30 32 35 36 37 38 39 40 41 42 43 43 44 45 45 44 45 46 47 46 46 45 46 47 49 50 51 51
4 1 2 5 6 6 4 1 3 7 5 3 6 5 6 5 4 4 1 3 1 7 6 11 13 8 9 6 4 3 4 7 8 7 8 12 20 29 31 30 29 30 31 30 31 32 31 33 32 29 27 23 19 18 19 21 23 25 28 31 33 34 35 36 37 38 40 41 42 42 43 43 43 44 46 47 47 48 48 47 47 47 48 49 50 51
4 2 2 5 6 5 6 3 1 2 3 4 3 3 3 4 4 4 4 4 1 8 5 11 13 11 10 6 1 5 6 5 6 6 8 10 15 24 26 25 25 26 29 32 33 31 29 29 26 25 25 22 19 18 20 21 23 26 27 29 31 32 33 34 36 37 39 40 41 42 42 42 43 44 45 46 47 47 48 48 48 48 49 49 50 50
3 6 5 2 5 7 6 2 3 4 3 5 3 3 1 4 3 3 3 1 4 8 4 6 7 7 13 9 4 10 11 10 9 8 11 10 14 23 24 22 23 24 28 34 35 32 29 26 22 23 25 23 21 20 20 21 22 24 26 27 29 30 31 33 35 37 38 40 40 41 42 42 43 44 45 45 46 47 47 47 48 48 49 49 50 50
4 5 3 3 4 9 10 5 3 2 4 7 5 6 4 2 2 4 3 2 5 7 3 2 4 5 9 6 8 14 14 13 10 12 19 20 20 25 25 24 27 29 31 35 35 30 26 23 20 22 26 25 22 20 21 22 21 23 26 27 28 29 31 32 34 36 38 38 39 40 41 42 43 44 45 46 46 47 47 47 47 47 48 48 48 48
4 8 5 7 4 10 13 12 10 5 4 7 6 6 5 5 5 4 3 5 8 6 3 1 4 4 4 2 7 10 9 11 11 15 20 23 26 28 28 29 32 34 35 37 35 28 24 22 21 23 27 27 24 21 22 23 22 24 26 28 29 29 31 32 34 36 37 38 39 40 41 41 43 43 44 45 46 46 47 47 47 47 47 48 47 46
5 9 6 4 2 10 11 10 8 6 1 4 4 4 5 6 5 4 7 7 5 4 4 2 4 6 4 5 8 8 10 12 12 12 12 17 24 25 28 32 35 38 39 39 36 30 27 26 25 26 28 29 27 24 23 23 22 23 26 28 29 29 30 31 32 33 35 37 40 41 42 42 43 43 44 45 45 46 46 46 47 47 47 47 47 46
4 7 4 1 1 4 1 3 2 3 2 2 3 4 4 3 6 5 8 3 0 4 6 4 7 7 5 9 7 2 6 8 9 10 10 15 21 21 25 32 35 37 38 38 37 35 34 33 31 30 29 29 29 26 24 24 22 22 25 28 29 30 32 31 31 31 33 37 39 41 42 43 44 45 45 45 45 46 47 48 48 47 48 47 46 46
4 7 4 2 2 2 4 3 2 2 3 5 3 5 1 2 2 3 3 1 2 8 6 5 13 11 5 8 5 7 8 7 7 8 7 11 15 16 22 26 26 29 31 33 34 34 33 31 30 29 28 28 28 28 27 27 27 26 26 28 29 31 32 31 30 31 33 36 38 40 42 44 45 46 46 47 48 49 49 49 48 48 49 48 46 47
1 5 5 1 2 4 4 1 2 3 2 5 3 2 2 1 3 2 3 3 6 10 6 7 15 13 7 8 7 7 9 9 9 6 5 8 10 11 15 19 22 25 27 28 28 28 26 25 26 26 28 27 23 24 25 26 28 29 29 30 30 31 32 33 33 33 34 36 38 39 41 44 46 47 48 49 50 51 51 50 49 50 49 48 48 48
1 3 5 1 1 2 4 1 3 2 2 1 1 3 1 2 3 3 3 2 5 9 8 8 11 9 7 7 5 7 9 7 8 6 4 6 9 13 15 18 23 27 28 29 29 29 27 25 27 30 32 31 24 21 23 24 27 29 31 32 30 30 32 34 35 36 36 38 38 39 41 43 45 47 49 51 52 53 53 52 52 51 50 49 50 49
1 3 5 1 1 2 1 3 5 4 2 1 2 3 3 2 1 1 2 1 3 7 8 8 9 8 6 4 5 7 8 6 6 5 5 6 10 16 18 20 25 28 30 32 32 33 33 31 33 33 32 31 28 24 23 25 28 29 32 33 31 31 33 32 33 34 36 38 40 41 42 43 44 47 50 52 53 54 54 54 54 53 52 51 51 51
1 2 2 1 4 6 6 5 6 6 4 4 4 4 5 5 3 5 6 4 4 5 7 9 10 7 4 5 5 5 5 6 7 5 6 9 15 21 25 27 27 27 29 33 35 37 39 40 41 41 36 33 33 34 34 35 34 32 34 35 33 33 32 30 29 29 32 35 39 42 44 45 46 47 50 51 53 54 54 55 56 56 55 54 52 52
2 2 3 4 6 9 10 6 7 7 6 5 5 5 6 5 4 6 8 6 5 6 7 8 11 5 3 10 12 6 6 7 7 7 6 8 14 19 25 31 33 34 34 35 39 43 44 45 45 44 42 41 43 45 46 44 40 35 33 34 36 35 31 29 28 28 29 32 34 37 41 45 48 49 50 52 53 54 54 55 56 57 58 56 54 53
3 2 3 5 4 5 10 11 7 6 5 6 5 7 8 9 9 10 9 7 7 9 7 9 11 5 3 9 14 13 13 10 9 10 7 8 15 20 25 30 35 40 42 43 46 46 44 42 41 42 44 49 51 51 51 49 42 37 33 31 35 37 33 29 28 28 29 30 31 33 38 44 48 51 53 54 53 52 53 54 55 56 57 58 57 55
3 3 3 3 4 4 6 7 6 2 4 4 5 8 11 13 14 13 7 4 7 10 11 11 11 6 4 8 12 16 20 17 16 15 11 11 18 23 26 29 31 36 39 42 42 39 36 36 39 41 44 48 50 48 47 47 42 37 36 34 35 38 37 35 33 31 31 31 33 37 42 46 49 53 56 56 55 54 53 53 54 55 56 57 58 57
4 4 4 4 7 8 8 7 7 4 2 2 4 8 12 15 16 12 7 6 9 11 13 13 12 9 7 9 12 17 22 22 22 20 13 10 14 22 26 28 28 28 28 29 29 28 30 33 35 35 35 37 40 39 38 37 36 34 36 38 38 38 38 38 36 34 35 37 40 43 47 49 51 53 55 56 56 56 55 54 54 55 55 57 58 58
2 3 7 11 11 11 12 12 11 8 5 6 6 8 9 10 13 11 9 10 11 11 13 13 14 15 13 12 15 18 19 21 22 21 15 13 18 24 22 18 17 19 20 21 22 22 24 26 26 27 28 30 32 34 34 33 32 33 34 35 35 35 36 37 38 40 42 44 47 49 50 51 52 53 53 54 56 57 56 55 55 55 54 55 57 58
3 4 8 15 15 15 17 18 16 14 12 13 13 13 12 11 11 11 11 13 11 12 13 12 13 16 14 11 14 16 16 17 18 20 22 24 23 19 16 16 17 18 20 23 24 25 25 26 27 28 28 29 30 31 33 33 32 33 34 35 36 37 38 39 41 44 48 49 50 51 51 51 51 51 50 51 54 56 56 54 55 55 54 55 57 58
3 5 8 13 16 16 17 19 18 17 16 15 16 18 19 18 17 16 17 17 14 14 15 14 16 18 15 12 15 16 15 15 16 21 26 27 27 24 22 20 20 23 25 27 28 29 29 29 30 31 31 31 31 30 31 33 34 34 34 35 37 38 39 39 40 43 47 50 52 51 49 47 46 46 46 48 51 53 54 54 54 55 54 54 56 57
4 4 5 10 14 14 15 18 19 19 19 18 18 18 19 20 22 23 23 21 19 20 20 19 22 23 17 13 11 10 13 16 19 24 26 28 28 26 24 23 24 25 27 28 29 30 31 31 31 32 32 32 33 33 32 33 33 33 33 34 35 36 37 37 38 39 42 45 47 48 47 45 44 44 44 46 47 49 51 53 54 54 54 54 55 56
4 3 6 8 9 11 13 15 16 18 19 18 17 17 18 21 23 23 22 19 19 21 22 23 24 20 10 8 9 14 20 21 21 21 21 23 24 24 24 24 25 27 28 29 31 31 31 32 32 33 34 34 34 34 34 34 34 34 33 33 34 36 37 38 39 40 41 42 42 43 43 44 45 45 45 45 46 48 50 52 53 54 54 54 55 55
3 3 6 7 8 9 9 10 12 14 15 17 17 18 20 21 19 17 17 17 18 20 22 21 16 9 7 10 9 12 17 16 14 14 15 19 21 21 22 24 25 27 28 28 30 31 32 33 34 35 36 35 36 35 35 35 35 35 36 36 36 35 35 36 37 38 39 41 41 42 42 43 44 45 47 47 46 48 50 51 52 53 53 54 54 54
4 4 5 6 7 9 11 12 12 12 13 14 12 13 17 18 17 16 16 15 12 10 10 8 4 3 6 10 10 13 14 12 13 13 13 17 19 19 20 22 23 26 27 27 28 29 31 32 33 34 35 36 37 37 36 36 36 36 37 37 38 36 33 32 32 32 33 34 36 38 39 39 41 42 45 46 46 47 49 50 52 52 53 53 53 53
7 7 6 6 7 10 14 15 12 11 13 9 4 4 4 5 7 8 5 4 5 6 4 3 3 3 6 8 10 11 11 12 18 18 10 15 21 19 20 22 22 24 25 26 27 29 30 32 33 34 35 36 38 38 37 37 37 37 37 37 38 38 36 31 28 28 28 28 29 31 33 34 36 38 41 43 45 46 48 49 51 51 52 52 52 53
9 9 7 6 7 9 11 11 12 13 9 2 4 5 3 5 6 5 6 9 8 8 7 5 5 5 6 6 7 11 13 18 24 18 9 17 25 21 21 23 22 23 24 25 27 29 31 33 35 36 37 37 39 38 37 38 39 39 39 39 39 40 39 35 30 27 26 26 27 29 30 31 33 35 37 39 42 44 46 48 49 49 50 51 51 52
9 8 6 5 6 7 7 8 12 11 5 2 3 7 5 4 7 6 5 7 7 5 6 5 3 3 3 5 8 12 17 21 22 13 9 19 25 20 20 22 21 21 23 24 27 29 31 33 35 36 37 38 39 39 38 39 39 40 41 41 41 40 39 38 36 33 30 29 28 28 28 29 30 31 33 36 39 42 44 45 46 48 49 50 50 50
10 7 5 5 6 7 8 10 11 11 8 4 1 5 3 1 4 3 1 2 3 2 2 2 0 1 2 5 9 14 17 16 13 7 7 16 20 17 18 20 20 21 23 25 28 30 31 32 33 34 35 37 37 38 38 39 39 40 41 41 41 40 39 39 39 37 36 35 32 28 27 27 28 29 30 32 35 38 40 42 43 45 46 47 49 49
7 7 7 7 6 5 8 7 6 10 8 2 2 5 5 6 6 4 5 2 3 2 2 3 2 3 2 4 9 12 12 10 8 7 10 16 19 18 18 20 20 23 25 28 30 31 31 31 31 32 32 34 35 35 36 38 39 40 40 40 39 39 39 39 38 37 38 38 35 32 28 27 27 27 28 29 32 34 36 38 40 42 44 45 46 46
1 3 4 6 6 5 7 6 6 8 5 2 4 6 7 12 9 3 4 3 3 3 7 6 4 5 5 6 8 6 6 7 6 8 16 21 22 20 20 22 23 25 27 29 30 31 31 31 31 31 31 32 33 34 35 37 39 39 39 39 38 37 37 38 37 37 37 37 36 34 31 29 28 26 26 27 28 30 33 35 37 39 40 42 43 44
5 3 1 4 6 6 7 8 7 6 2 3 4 6 10 14 8 2 5 3 3 6 12 10 7 8 9 10 9 4 2 5 9 16 25 26 23 22 23 25 26 28 29 30 30 30 31 31 30 31 31 31 33 34 35 36 38 38 38 38 37 36 36 36 36 36 36 36 36 35 33 32 30 27 25 24 25 27 29 31 33 35 37 39 40 42
2 1 2 3 6 7 9 9 6 4 3 3 4 8 11 10 3 3 6 4 3 8 13 14 14 13 12 12 10 7 8 13 18 27 31 27 24 25 27 27 28 29 30 31 31 31 32 32 31 31 31 31 32 33 34 35 37 37 37 37 36 35 35 35 35 35 35 35 36 36 35 33 31 29 27 24 23 24 26 28 29 32 34 36 38 40
2 2 2 4 5 5 5 6 7 5 3 4 5 14 12 4 1 6 7 8 11 14 13 16 19 17 16 17 16 15 18 21 24 29 30 28 28 29 29 29 30 31 31 31 31 31 32 33 33 33 33 32 32 32 33 34 35 36 36 36 36 35 34 34 34 34 33 33 34 35 36 35 33 30 28 26 24 22 23 25 26 28 30 33 36 38
4 3 4 4 3 3 3 5 8 7 3 3 5 10 4 2 5 11 12 11 13 16 17 19 21 20 20 20 20 21 22 23 25 27 28 29 30 30 29 30 31 33 33 32 32 31 31 32 33 33 33 33 33 32 32 33 34 35 36 36 36 35 35 34 33 34 34 33 33 35 37 37 36 33 30 27 26 23 22 23 23 24 26 30 34 36
5 5 5 3 3 4 5 6 6 5 4 8 10 7 9 16 19 17 13 12 14 18 21 21 21 22 22 22 23 24 24 25 26 26 26 27 29 29 29 29 31 33 34 34 34 33 32 32 33 33 33 33 32 32 32 33 35 36 36 36 36 36 36 36 35 36 36 35 35 35 37 38 38 36 33 30 27 26 24 23 23 22 22 26 31 34
5 6 6 6 6 5 5 7 8 6 11 21 24 22 26 30 27 19 16 17 22 26 25 22 22 24 24 24 24 24 25 26 26 25 25 27 28 30 31 31 32 34 35 36 36 35 33 33 34 35 35 34 33 33 33 33 35 38 39 38 38 38 38 38 38 39 39 39 38 37 38 39 39 38 36 32 30 29 27 26 25 23 23 25 29 33
6 7 4 3 6 7 7 11 13 11 17 27 33 32 30 28 26 26 26 26 29 30 27 23 24 27 27 26 24 23 25 26 25 25 26 28 29 31 33 35 35 35 36 37 38 37 35 35 36 37 38 38 37 36 36 36 36 38 40 40 40 40 41 41 41 42 41 42 42 40 40 41 41 41 39 36 33 32 31 29 28 27 26 26 29 32
7 10 6 5 8 9 9 11 12 13 20 27 29 29 29 29 32 34 32 31 30 29 27 27 29 29 27 24 23 22 22 23 23 25 27 28 30 33 36 37 38 38 38 38 39 38 37 37 38 39 40 41 41 40 39 40 39 40 41 41 41 41 42 43 44 45 45 46 46 45 44 43 42 42 42 39 37 35 33 33 32 30 30 30 31 33
6 5 6 8 10 10 10 13 16 20 25 27 27 28 30 34 35 33 30 30 29 27 28 30 29 25 22 22 22 21 22 24 25 26 26 28 31 34 37 39 40 40 40 40 40 40 39 39 41 41 41 43 44 44 44 44 44 43 43 43 43 43 44 45 46 47 48 50 50 49 49 47 45 43 43 41 39 37 36 36 35 35 35 34 33 34
8 4 4 6 7 9 11 13 16 18 20 23 27 29 29 30 29 27 26 26 26 25 26 26 24 21 21 22 23 23 25 29 30 30 30 32 35 37 38 40 40 40 41 42 42 41 41 42 43 43 43 45 46 47 47 48 48 47 47 47 47 47 47 48 49 50 51 53 53 53 52 51 48 45 43 42 41 40 39 38 37 37 38 37 36 36
8 7 7 6 6 8 10 12 14 13 9 14 23 29 28 26 24 22 22 22 21 21 21 22 25 25 25 25 25 26 29 32 35 35 35 37 39 40 40 41 41 42 43 43 43 43 43 44 45 44 45 48 49 49 50 51 51 51 51 51 52 51 50 50 51 52 54 54 54 54 54 52 50 48 45 43 42 42 41 40 39 38 39 39 38 38
13 11 10 8 9 12 16 21 22 15 10 16 27 30 27 24 23 21 20 19 19 20 21 22 25 28 29 30 30 30 32 35 36 37 38 40 41 42 42 42 42 43 45 45 45 45 46 46 45 44 47 49 51 52 53 53 54 55 55 56 55 53 52 51 52 54 56 56 55 55 54 52 51 49 46 44 44 43 42 42 41 40 40 40 40 39
Wind_Direction
171 170 167 186 217 226 216 196 211 229 242 259 244 245 253 261 265 254 259 263 243 283 264 245 264 269 267 267 267 270 273 276 276 272 268 267 267 268 269 268 268 268 270 274 275 275 275 274 272 269 267 264 262 261 258 254 251 249 248 247 246 245 244 241 240 239 237 235 230 228 229 229 230 229 228 228 228 228 228 229 229 230 230 231 232 234
175 200 210 209 222 228 218 205 219 238 263 270 252 264 265 250 265 263 265 272 233 230 260 243 268 272 265 267 268 269 268 264 268 270 269 268 267 267 268 269 269 270 272 274 275 275 275 273 271 269 267 263 261 260 258 256 255 254 251 248 247 245 243 242 240 239 239 239 237 234 233 232 231 230 229 229 229 228 228 228 229 230 230 231 232 234
209 226 226 222 230 248 250 190 187 222 237 244 244 271 271 252 273 272 259 273 265 205 271 263 266 269 266 263 261 263 259 251 257 262 266 269 268 267 266 267 269 271 272 272 273 275 275 272 270 268 266 264 263 261 259 258 257 254 251 249 247 244 243 243 241 240 240 241 241 239 237 235 233 232 231 231 231 230 228 228 229 230 230 231 232 233
225 234 231 231 237 255 260 220 144 227 236 218 221 245 264 256 268 266 251 298 313 219 271 284 274 272 266 259 251 250 253 253 255 259 265 267 265 263 264 265 266 267 270 271 273 274 273 272 271 268 267 266 264 261 258 256 254 251 250 248 246 245 244 242 241 240 240 240 239 237 235 233 233 233 232 232 232 231 230 230 230 230 231 231 232 233
238 240 226 223 220 215 241 245 206 257 258 219 211 222 251 251 246 252 276 337 321 266 276 297 291 281 238 236 244 242 249 254 253 256 263 265 262 262 263 264 263 263 265 269 271 273 272 271 272 271 270 268 264 262 262 259 256 253 251 248 246 246 244 242 241 239 237 236 235 233 230 228 229 230 230 230 230 231 230 230 230 231 231 231 232 233
250 249 212 185 205 210 222 240 217 223 252 250 217 214 237 249 254 263 290 337 335 297 305 353 309 292 196 198 234 239 244 251 249 250 255 259 261 260 260 264 265 264 265 267 271 274 273 271 271 271 269 267 266 267 267 263 259 256 253 250 246 245 244 242 240 237 235 234 234 233 230 227 226 226 228 229 230 230 231 231 231 231 231 231 232 233
251 239 207 184 200 200 203 244 224 202 240 269 229 211 231 246 258 262 273 305 279 257 294 58 321 288 280 201 218 228 233 245 247 245 248 253 258 258 258 263 268 269 269 270 273 275 275 273 271 271 270 270 271 272 269 264 259 255 252 249 246 244 243 242 239 236 234 233 233 234 234 233 231 230 230 231 231 233 234 234 234 233 233 233 233 234
205 214 207 201 200 179 187 242 227 185 212 266 235 197 207 220 235 237 232 230 235 274 302 123 138 277 287 256 195 208 218 241 253 249 251 252 256 258 260 265 270 274 276 276 277 278 279 277 274 275 275 274 275 273 268 263 258 253 250 248 246 244 243 241 239 237 235 234 234 234 235 236 236 236 237 236 235 235 235 236 236 236 236 235 235 235
167 192 206 191 180 187 207 228 195 156 195 256 198 159 173 192 208 181 181 210 249 350 299 213 135 250 279 276 121 185 208 232 247 243 247 252 255 260 264 269 274 278 281 281 281 281 282 281 280 280 279 278 276 272 266 262 257 252 248 246 245 243 242 240 238 237 236 236 236 235 236 237 237 238 239 238 238 237 237 237 237 237 237 237 237 236
200 201 195 165 164 214 220 225 161 159 199 226 109 89 72 77 80 105 150 158 87 305 247 195 162 216 277 285 79 87 188 221 241 242 248 255 260 263 266 270 275 280 282 284 285 284 283 284 285 284 281 278 274 266 259 255 251 248 244 243 243 242 241 239 238 237 236 236 235 236 236 237 237 237 236 237 237 237 238 238 238 238 238 237 237 237
250 129 135 174 196 204 168 101 161 172 183 128 100 56 33 28 28 55 54 86 68 277 232 184 184 190 270 288 122 162 215 219 233 245 258 261 260 262 264 268 274 280 282 283 284 284 285 286 289 288 281 275 269 259 251 245 242 241 240 240 241 241 241 240 238 237 236 236 236 236 237 237 237 236 235 236 236 236 236 236 238 238 238 238 238 238
257 200 204 206 196 153 106 87 12 65 114 119 104 66 29 332 2 27 350 50 183 266 230 185 186 187 233 261 167 254 271 245 225 226 245 255 258 260 262 267 276 283 284 283 283 286 288 287 293 297 287 273 267 260 248 240 237 237 237 238 240 240 239 239 238 237 236 236 236 237 237 237 237 236 236 236 237 237 236 236 237 237 238 239 238 238
265 225 217 180 181 171 149 131 345 2 91 117 114 129 129 312 343 348 310 97 216 260 252 185 178 207 243 256 269 274 275 255 230 220 232 243 259 265 265 268 277 282 283 284 285 288 291 292 302 309 299 281 268 263 250 240 238 238 237 238 239 239 239 238 237 237 236 236 237 237 237 237 237 237 238 238 239 240 240 239 239 239 239 239 238 238
285 273 195 138 232 195 168 168 228 258 171 158 155 159 168 204 243 257 258 259 260 266 279 172 168 248 275 271 234 241 256 260 252 242 244 247 255 264 268 271 274 277 280 283 286 291 296 300 307 311 309 295 275 262 250 240 239 239 236 237 239 239 239 239 238 238 237 237 237 237 237 237 237 237 238 239 239 240 241 242 242 242 242 242 242 241
251 287 198 163 214 183 178 202 203 161 157 187 166 145 177 188 195 222 218 250 266 273 301 198 176 225 265 260 224 231 266 287 274 256 255 258 258 263 271 273 273 275 278 280 284 293 300 304 307 307 310 307 289 267 250 241 239 240 238 238 239 239 238 238 239 239 239 238 236 236 237 237 237 238 238 239 241 241 242 243 243 244 245 245 245 245
221 271 235 191 149 156 181 221 191 120 114 220 131 121 220 201 173 218 235 236 255 290 290 234 220 235 238 265 258 251 269 274 271 273 277 274 268 268 271 270 270 272 275 278 283 294 302 304 307 305 306 309 300 277 252 242 242 243 243 242 241 240 239 239 240 240 241 240 238 236 236 237 237 238 238 239 240 240 241 242 243 244 245 246 247 248
235 275 267 323 33 137 174 278 180 138 214 200 134 188 233 152 147 216 252 255 51 268 262 241 256 273 300 292 283 289 283 276 284 287 279 278 280 279 273 269 271 276 281 285 290 296 300 304 309 308 304 306 305 289 259 246 247 247 247 249 246 242 239 238 239 242 242 241 239 238 237 237 237 237 237 236 237 238 240 242 243 244 246 247 248 248
249 278 271 170 235 301 355 339 333 20 128 134 179 222 210 66 135 181 237 301 233 246 251 254 265 274 291 283 308 9 338 307 285 270 274 290 289 286 287 289 294 299 303 303 303 305 307 312 317 314 309 307 308 299 273 252 248 246 247 252 253 248 244 242 241 241 242 243 242 241 239 238 237 238 238 239 239 240 241 242 243 244 245 245 246 247
278 281 280 153 221 298 1 341 294 350 96 141 205 251 102 188 240 163 177 219 232 244 244 243 260 268 253 249 281 311 296 284 275 278 323 317 296 294 306 317 323 324 325 324 324 324 325 328 330 327 324 323 316 302 285 265 254 250 247 249 255 258 254 249 246 245 245 246 246 245 243 241 240 240 241 241 242 242 242 242 243 244 245 245 245 246
73 258 263 138 165 307 17 93 206 281 319 77 303 319 38 189 205 184 190 193 227 248 252 240 248 259 249 235 236 250 248 251 273 296 318 290 291 307 315 325 332 334 336 335 333 331 330 335 341 342 340 339 334 314 296 280 267 259 253 250 253 260 259 252 250 249 248 248 249 250 249 246 245 243 243 243 243 244 244 244 244 245 245 245 245 246
127 243 252 251 306 288 287 198 192 201 213 182 240 269 273 245 239 268 244 174 219 249 255 248 243 247 255 232 199 230 238 212 221 261 268 264 290 311 322 332 337 339 339 338 337 336 336 340 346 346 346 347 344 333 318 301 284 269 259 254 252 255 257 256 254 255 255 254 252 252 252 252 251 248 246 245 245 246 246 247 247 247 246 245 245 246
175 239 247 289 277 262 245 210 184 179 176 178 206 236 246 240 259 277 255 217 213 244 250 256 258 251 269 272 228 207 217 203 204 240 273 291 302 312 320 323 327 331 332 329 328 330 332 334 336 336 336 339 336 330 326 319 306 287 268 259 254 253 255 259 262 264 266 263 259 258 256 255 254 252 250 249 248 248 248 248 249 248 247 246 246 246
153 147 195 230 247 256 267 254 205 203 227 238 230 237 248 237 226 246 252 245 244 257 260 266 265 244 233 271 268 263 256 242 246 264 274 297 306 313 314 309 310 317 321 319 317 318 321 322 323 322 321 322 322 319 317 315 310 300 283 267 258 255 256 261 266 268 269 268 267 268 266 262 259 256 255 253 251 250 250 250 250 249 249 248 247 247
120 117 218 239 248 265 279 278 248 211 218 246 239 223 230 235 233 237 246 255 258 259 261 264 261 234 193 262 275 283 281 267 262 268 272 299 306 308 307 304 304 309 311 311 310 313 315 315 315 314 311 311 312 312 309 305 302 299 294 280 267 261 260 262 266 267 268 269 273 276 275 271 265 260 256 255 254 253 253 252 251 250 250 249 249 248
200 208 206 251 275 271 276 280 273 217 171 222 236 215 219 229 237 247 254 258 257 247 244 254 259 245 224 254 270 279 281 279 272 269 271 286 297 302 302 300 298 298 301 305 310 316 319 316 313 311 309 308 309 311 308 304 300 296 291 286 278 272 267 263 260 262 265 269 274 276 275 272 266 261 258 257 256 256 254 253 252 252 251 249 249 248
228 226 197 238 263 260 261 259 260 262 185 206 232 218 221 224 229 243 253 246 251 243 238 248 259 257 246 250 261 269 275 280 280 281 283 285 293 296 294 294 296 302 312 321 328 329 322 315 312 309 308 306 308 314 315 312 310 303 293 284 278 276 276 272 269 269 271 273 274 274 273 269 265 263 262 261 259 256 255 253 252 252 251 250 249 248
240 246 224 235 245 247 256 258 256 265 254 251 256 235 229 231 230 238 245 244 255 257 247 246 256 262 256 250 258 264 270 280 288 293 298 300 300 299 302 314 329 338 348 355 354 346 335 329 327 326 322 316 314 317 320 320 318 314 307 298 291 290 290 288 284 281 279 276 273 270 269 268 265 265 265 264 261 256 253 253 252 252 253 251 249 248
225 260 244 243 250 247 256 264 263 265 260 258 265 259 253 253 242 239 245 248 256 265 260 252 256 262 258 251 258 264 270 279 287 293 301 311 323 339 3 15 12 5 5 9 7 3 358 352 348 345 340 334 328 321 319 320 319 318 316 310 306 305 304 301 297 292 287 281 274 271 270 268 266 266 266 265 261 256 252 253 253 253 253 252 249 248
224 267 257 253 263 259 258 264 262 263 260 253 255 257 257 257 253 251 252 249 247 253 260 263 261 261 260 256 256 264 277 285 294 309 324 342 4 26 33 25 19 15 11 11 10 7 3 359 356 353 350 349 344 334 326 323 319 317 312 305 303 302 303 305 303 298 294 288 282 280 277 274 271 271 269 266 262 258 254 253 254 254 253 252 250 248
240 279 281 270 278 272 265 265 263 262 262 255 249 248 251 254 254 255 256 256 255 256 260 265 263 261 265 273 281 313 342 349 350 353 5 19 24 26 25 20 18 14 8 7 7 6 4 1 359 357 355 356 355 350 344 337 331 326 317 307 302 298 299 300 297 296 297 294 291 290 286 281 278 276 273 270 267 262 257 254 254 254 253 252 250 248
269 313 329 310 295 283 276 272 268 266 266 264 260 254 253 254 254 255 259 262 263 262 261 261 261 262 286 331 349 7 12 15 13 11 19 24 19 17 17 14 10 7 6 6 4 5 6 4 2 1 1 1 360 357 354 348 342 338 331 321 312 305 302 300 295 295 297 295 295 295 291 286 283 279 276 273 269 264 258 255 254 254 253 251 249 247
281 292 315 310 289 282 284 279 281 288 286 278 272 264 257 255 254 255 256 256 260 265 267 268 270 278 339 354 356 10 12 13 10 7 12 14 15 18 14 7 5 3 2 2 2 4 6 5 4 3 2 1 1 359 357 352 347 344 342 337 330 320 312 306 301 298 296 294 294 293 291 289 286 282 278 274 269 264 259 255 254 253 251 250 248 246
241 263 289 289 283 286 284 283 292 303 292 279 273 267 258 257 260 260 260 265 276 287 281 280 297 321 340 351 359 3 4 1 349 345 357 7 8 12 10 3 1 359 358 0 2 2 2 2 360 358 357 357 355 354 353 352 347 345 345 345 341 335 325 316 312 308 302 299 298 295 292 290 287 283 279 274 269 265 259 256 254 253 252 251 249 246
247 259 267 268 276 280 284 293 295 283 274 274 305 326 287 283 288 279 286 332 21 58 96 125 80 18 359 12 9 350 343 342 334 323 335 10 7 3 3 360 356 356 357 358 358 357 356 355 352 350 349 348 347 346 345 345 344 343 344 346 347 345 339 329 322 320 317 313 310 304 297 293 288 284 280 274 269 264 260 257 255 254 253 250 248 245
258 263 263 259 267 272 282 291 279 267 267 255 61 29 21 48 41 52 72 58 55 75 91 81 52 36 18 9 355 336 325 330 332 321 327 5 2 355 352 353 352 352 352 351 351 350 349 347 344 343 341 340 341 340 339 339 340 339 341 344 346 349 348 343 337 336 335 330 324 316 306 298 292 287 281 275 269 265 261 258 256 254 252 250 247 246
245 260 267 257 266 273 271 262 259 271 279 172 79 29 20 27 23 31 69 61 48 65 80 65 45 46 7 335 341 338 324 324 330 325 325 347 349 346 345 345 345 345 344 343 343 341 342 342 341 339 337 336 336 336 336 336 337 336 337 340 343 346 348 348 347 347 348 344 338 329 318 308 298 290 284 278 271 267 263 260 257 255 252 249 246 244
227 245 261 256 254 258 262 257 260 281 284 234 318 7 8 340 351 337 311 63 75 88 88 89 210 333 338 304 314 326 324 322 323 315 319 334 335 334 335 335 335 335 334 336 336 336 337 338 337 336 335 334 334 334 334 334 334 334 334 336 340 342 343 346 349 350 349 348 345 338 330 319 308 298 289 280 274 269 266 262 259 254 250 247 245 243
218 228 241 253 248 251 275 279 273 281 281 221 241 269 253 259 262 243 247 231 122 143 186 168 218 264 275 273 291 312 322 323 316 309 323 328 325 324 326 326 326 327 328 331 332 332 334 334 334 335 334 333 333 334 334 333 333 333 333 335 338 340 340 343 347 348 348 348 346 343 339 331 319 309 298 287 279 273 268 264 259 254 251 248 247 246
335 257 237 256 265 267 279 280 273 276 268 165 222 243 257 276 275 235 235 232 128 182 207 185 208 244 236 252 267 285 320 325 313 309 316 317 314 314 315 316 319 322 324 327 328 329 331 332 331 331 332 333 334 334 333 333 332 333 333 334 336 337 338 338 340 343 344 346 346 345 343 340 332 321 310 297 287 278 271 265 260 256 253 251 249 249
9 352 193 246 261 261 265 265 267 272 240 177 222 251 278 288 288 230 250 254 116 206 213 197 218 247 245 250 250 232 271 291 292 303 309 308 304 305 308 310 314 318 320 323 325 325 326 327 328 330 332 333 333 333 334 333 331 332 333 334 334 336 336 335 334 334 334 336 339 340 340 339 336 332 324 311 296 284 275 268 263 259 256 254 252 250
331 276 216 232 246 252 260 264 267 267 243 209 243 284 305 316 313 223 259 310 328 256 229 215 231 252 255 246 235 225 251 272 288 299 303 300 295 300 305 307 311 315 317 319 321 322 322 323 325 327 329 331 332 332 333 333 331 330 331 332 334 335 334 332 329 328 326 327 329 332 333 332 332 331 329 321 308 292 280 273 268 265 262 258 255 252
257 247 244 230 233 247 253 257 274 279 204 156 299 310 320 350 203 249 279 304 293 275 256 238 241 255 261 249 242 251 268 283 293 297 299 299 297 300 304 307 311 313 314 316 317 319 320 320 321 323 324 328 330 330 332 331 329 329 329 330 332 334 332 329 327 325 323 321 321 325 327 327 326 325 324 322 317 304 288 278 271 268 266 261 256 253
241 249 260 231 226 265 260 254 272 272 196 134 332 324 327 172 254 278 286 289 279 273 268 255 249 258 261 254 254 262 273 285 291 291 293 295 296 299 302 305 310 311 312 313 314 316 317 316 316 318 319 322 325 326 328 327 325 326 326 327 329 330 329 329 327 324 321 318 317 318 320 321 321 320 318 317 314 308 297 283 273 269 267 263 258 254
226 230 251 234 227 253 249 244 242 229 261 310 317 303 280 284 286 281 277 284 289 285 276 261 257 263 260 254 258 266 272 279 283 284 285 288 293 297 299 302 307 309 309 310 311 312 314 312 310 311 313 315 318 319 320 321 320 320 321 323 325 325 325 326 326 324 321 319 316 314 315 316 316 315 314 312 308 305 301 292 280 274 269 263 258 255
219 218 235 242 242 233 221 241 252 260 291 298 293 281 281 287 288 281 278 286 294 294 283 267 267 276 270 259 259 268 275 280 282 282 283 288 292 296 298 303 306 307 307 308 309 310 309 307 306 306 307 309 311 312 313 314 314 313 314 318 321 322 322 323 322 321 320 319 316 314 312 311 311 310 310 309 305 300 296 292 286 281 274 265 258 255
252 248 244 248 258 260 252 254 263 277 280 277 277 276 276 280 284 287 288 289 294 296 287 275 279 287 280 268 264 270 277 282 283 282 285 290 292 295 299 302 303 304 305 306 307 307 305 303 301 302 303 305 307 308 308 308 308 308 309 312 316 317 318 319 318 318 317 316 314 312 310 308 307 307 307 305 303 299 293 287 284 282 277 270 262 258
262 250 241 249 259 264 266 258 257 263 263 264 269 273 274 278 285 290 291 291 294 293 287 285 290 290 281 272 272 277 281 282 282 284 287 291 292 295 298 300 301 302 303 303 304 304 301 298 298 299 300 302 305 306 306 305 305 305 305 308 310 312 313 314 314 314 314 312 312 310 308 306 304 304 304 302 300 297 290 284 279 276 274 272 267 262
259 233 215 239 251 251 259 267 267 265 266 268 271 273 275 280 286 290 292 293 293 290 287 288 288 283 276 274 278 283 286 286 287 290 292 293 294 296 297 298 299 301 302 302 302 300 298 296 296 296 297 299 302 304 304 303 303 304 304 305 306 308 308 309 309 310 309 309 308 306 305 303 302 301 300 299 297 295 290 285 280 276 275 275 274 270
263 258 213 228 252 259 265 274 277 275 274 274 274 277 281 285 288 292 295 294 290 287 284 281 276 272 273 277 281 286 289 289 291 296 298 297 297 297 297 298 299 299 299 299 298 297 296 294 294 294 295 297 300 301 300 300 301 302 303 304 304 305 305 305 305 305 305 304 304 303 302 301 300 298 297 295 294 292 289 286 283 279 278 277 275 273
253 261 253 245 258 265 265 265 267 270 275 277 280 286 291 294 297 299 296 292 287 283 280 276 274 274 275 278 284 291 294 294 295 298 299 298 297 297 298 298 298 297 297 297 296 294 293 292 292 292 292 294 297 297 297 297 298 299 300 301 302 302 301 301 302 301 300 300 299 299 298 297 296 295 293 291 290 288 287 285 282 279 278 276 274 272
239 245 251 254 258 259 261 266 267 269 276 281 284 288 292 297 301 298 294 292 287 283 285 286 286 286 286 287 291 296 298 298 299 299 298 297 297 297 297 297 296 296 296 296 294 292 291 291 291 291 290 292 293 293 293 294 294 296 297 298 298 297 296 297 297 297 296 295 294 294 293 292 291 291 289 286 285 284 283 282 280 277 275 273 271 270